User: anonymous   Login
Location: Asis
(14.1331°N, 120.9056°E)
Time: 04:31:48
(UTC+00:00)
Language:

Cosmos 1862 Rocket - Orbit

View from above orbital plane
View from above orbital plane
View from above satellite
View from above satellite

Ground track
Ground track

The orbit is defined by the following mean orbital elements,

1 18153U          26066.85939882 +.00000000 +00000-0 +92001-4 0 00009
2 18153  82.5030 350.7558 0021311  23.7418 336.4776 14.85627282    05
Epoch (UTC): 07 March 2026 20:37:32
Eccentricity: 0.0021311
inclination: 82.5030°
perigee height: 597 km
apogee height: 627 km
right ascension of ascending node: 350.7558°
argument of perigee: 23.7418°
revolutions per day: 14.85627282
mean anomaly at epoch: 336.4776°

The dashed part of the orbit path shows where the satellite is in the earth's shadow,  

DLR